Regional Weather Roundup
Issued by NWS Green Bay, WI

Home | Current Version | Previous Version | Text Only | Print | Product List | Glossary On
Versions: 1 2 3 4 5 6 7 8 9 10 11 12 13 14 15 16 17 18 19 20 21 22 23 24 25 26 27 28 29 30 31 32 33 34 35 36 37 38 39 40 41 42 43 44 45 46 47 48 49 50
000
ASUS43 KGRB 201459
RWRGRB

NORTH-CENTRAL AND NORTHEAST WISCONSIN REGIONAL WEATHER ROUNDUP
NATIONAL WEATHER SERVICE GREEN BAY WI
1000 AM CDT SUN APR 20 2014

WIZ005-009-010>012-018-019-201600-
NORTH CENTRAL WISCONSIN

CITY           SKY/WX    TMP DP  RH WIND       PRES   REMARKS
IRONWOOD       SUNNY     55  45  67 W3        30.01S
MANITOWISH WTR NOT AVBL
ARBOR VITAE    NOT AVBL
EAGLE RIVER    NOT AVBL
LAND O LAKES   NOT AVBL
RHINELANDER    CLOUDY    52  42  69 SW8       30.07F
PHILLIPS       NOT AVBL
ANTIGO         NOT AVBL
TOMAHAWK       NOT AVBL
MERRILL        NOT AVBL
$$

WIZ013-073-201600-
NORTHEAST WISCONSIN

CITY           SKY/WX    TMP DP  RH WIND       PRES   REMARKS
IRON MOUNTAIN  CLOUDY    46  43  89 S6        30.08F FOG
MARINETTE      CLOUDY    39  37  93 S5        30.12S
$$

WIZ017-030-035>037-045-201600-
CENTRAL WISCONSIN

CITY           SKY/WX    TMP DP  RH WIND       PRES   REMARKS
MEDFORD        NOT AVBL
WAUSAU         CLOUDY    51  46  83 S3        30.07S
MOSINEE        CLOUDY    48  48 100 S10       30.10F
MARSHFIELD     CLOUDY    55  50  83 S10       30.07F
WISC RAPIDS    HVY RAIN  50  48  93 S5        30.11F FOG
STEVENS POINT  NOT AVBL
WAUPACA        NOT AVBL
SHAWANO        NOT AVBL
CLINTONVILLE   NOT AVBL
$$

WIZ038-039-048-051-201600-
FOX VALLEY

CITY           SKY/WX    TMP DP  RH WIND       PRES   REMARKS
NWS GREEN BAY  CLOUDY    50  42  74 S6        30.13S
APPLETON       CLOUDY    50  43  76 VRB3      30.14F
OSHKOSH        CLOUDY    53  39  59 S7        30.13S
FOND DU LAC    CLOUDY    56  38  50 S15       30.13F
$$

WIZ022-050-052-201600-
EAST CENTRAL WISCONSIN

CITY           SKY/WX    TMP DP  RH WIND       PRES   REMARKS
STURGEON BAY   CLOUDY    39  34  81 SE12      30.15F
MANITOWOC      NOT AVBL
SHEBOYGAN      CLOUDY    48  38  68 S9        30.16F
$$

LMZ563-521-522-541>543-201600-
LAKESHORE

STATION/POSITION TIME  TEMP    WIND        PRES    VSBY  WAVE
                       AIR SEA DIR/SP/G                  HT/PER
                 (UTC) (F)     (DEG/KT/KT) (MB)    (MI)  (FT/S)
SHEBOYGAN LKSHOR 1400   40     180/ 17/ 19 1022.3F
KEWAUNEE LKSHORE 1400   38     170/ 15/ 18 1022.2F
NORTHPORT PIER   1400   39     160/ 11/ 23 1021.0F
SISTER BAY LKSHO 1400   37     170/ 22/ 30   N/A
MENOMINEE LKSHOR 1400   37     170/ 13/ 17 1020.7F
$$



USA.gov is the U.S. government's official web portal to all federal, state and local government web resources and services.